EW3522 Weather Reports


time (UTC)temp
C
wind
direction
speed
KPH
gust
KPH
rain 1hr
cm
rain 24hr
cm
rain mn
cm
humidity
%
barometer
mb
20260505194042 11 0 0.0 0.0 0.00 0.00 0.00 40 1009.7
20260505193041 11 0 0.0 0.0 0.00 0.00 0.00 42 1009.6
20260505192041 11 0 0.0 0.0 0.00 0.00 0.00 43 1009.5
20260505191042 11 0 0.0 0.0 0.00 0.00 0.00 44 1009.5
20260505185041 12 0 0.0 0.0 0.00 0.00 0.00 45 1009.4
20260505184043 12 0 0.0 0.0 0.00 0.00 0.00 45 1009.3
20260505182041 12 0 0.0 0.0 0.00 0.00 0.00 45 1009.2
20260505181041 12 0 0.0 0.0 0.00 0.00 0.00 45 1009.2
20260505180042 12 0 0.0 0.0 0.00 0.00 0.00 44 1009.1
20260505175041 13 0 0.0 0.0 0.00 0.00 0.00 45 1008.9
20260505174041 13 0 0.0 0.0 0.00 0.00 0.00 45 1009.0
20260505172042 13 0 0.0 0.0 0.00 0.00 0.00 46 1009.1
20260505170041 14 0 0.0 0.0 0.00 0.00 0.00 47 1009.2
20260505165043 15 0 0.0 0.0 0.00 0.00 0.00 46 1009.2
20260505163041 15 0 0.0 0.0 0.00 0.00 0.00 45 1009.2
20260505162042 15 0 0.0 0.0 0.00 0.00 0.00 45 1009.3
20260505153042 15 0 0.0 0.0 0.00 0.00 0.00 45 1009.3
20260505152041 15 0 0.0 0.0 0.00 0.00 0.00 45 1009.3
20260505151042 15 0 0.0 0.0 0.00 0.00 0.00 44 1009.5
20260505124042 13 0 0.0 0.0 0.00 0.03 0.00 23 1010.5
20260505123041 12 0 0.0 0.0 0.00 0.03 0.00 23 1010.5
20260505122041 12 0 0.0 0.0 0.00 0.03 0.00 13 1010.7
20260505120041 11 0 0.0 0.0 0.00 0.03 0.00 11 1010.6
20260505114042 12 0 0.0 0.0 0.00 0.03 0.00 12 1010.8
20260505113042 12 0 0.0 0.0 0.00 0.03 0.00 13 1010.9
20260505112041 12 0 0.0 0.0 0.00 0.03 0.00 12 1010.9
20260505102042 11 0 0.0 0.0 0.00 0.03 0.00 1 1011.2
20260505101042 10 0 0.0 0.0 0.00 0.03 0.00 1 1011.3
20260505100041 10 0 0.0 0.0 0.00 0.03 0.00 1 1011.3
20260505095041 10 0 0.0 0.0 0.00 0.03 0.00 1 1011.3
20260505093042 10 0 0.0 0.0 0.00 0.03 0.00 1 1011.4
20260505092041 10 0 0.0 0.0 0.00 0.03 0.00 1 1011.4
20260505091041 10 0 0.0 0.0 0.00 0.03 0.00 1 1011.4
20260505090042 10 0 0.0 0.0 0.00 0.03 0.00 1 1011.4
20260505085042 9 0 0.0 0.0 0.00 0.03 0.00 1 1011.3
20260505084041 9 0 0.0 0.0 0.00 0.03 0.00 1 1011.3
20260505083041 9 0 0.0 0.0 0.00 0.03 0.00 1 1011.2
20260505082042 9 0 0.0 0.0 0.00 0.03 0.00 1 1011.3
20260505081042 8 0 0.0 0.0 0.00 0.03 0.00 1 1011.3
20260505075041 8 0 0.0 0.0 0.00 0.03 0.00 1 1011.4
20260505074041 9 0 0.0 0.0 0.00 0.03 0.00 1 1011.4
20260505073042 9 0 0.0 0.0 0.00 0.03 0.00 1 1011.4
20260505072041 9 0 0.0 0.0 0.00 0.03 0.00 1 1011.4
20260505071042 9 0 0.0 0.0 0.00 0.03 0.00 1 1011.5
20260505070042 9 0 0.0 0.0 0.00 0.03 0.00 1 1011.5
20260505065041 9 0 0.0 0.0 0.00 0.03 0.00 1 1011.7
20260505064042 9 0 0.0 0.0 0.00 0.03 0.00 1 1011.8
20260505063042 8 0 0.0 0.0 0.00 0.03 0.00 1 1011.9
20260505062042 8 0 0.0 0.0 0.00 0.03 0.00 1 1011.8
20260505061041 8 0 0.0 0.0 0.00 0.03 0.00 1 1011.9